Date String (YYYY-MM-DD hh:mm:ss) UTC,Instrument flags,Ambient pressure (hPa),Sample flow (lpm),Bypass flow (lpm),Sample temperature (°C),Ambient temperature (°C),ASC tube jacket temperature (°C),LED temperature (°C),Box temperature (°C),Sample RH (%),Span deviation,Mass concentration (μg/m³),Mass concentration (μg/m³),Mass concentration (μg/m³)
DateTimeUTC,F1_M11,P_M11,Q1_M11,Q2_M11,T1_M11,T2_M11,T3_M11,T4_M11,T5_M11,U1_M11,ZSPAN_M11,X0_M11,X2_M11,X1_M11
2022-10-13 23:00:00,,0827.8,5.00,0.00,29.9,28.3,00.0,38.7,31.7,13.3,0001.6,0019.67,0008.67,0007.57
2022-10-13 23:01:00,,0827.8,5.00,0.00,29.9,28.4,00.0,38.7,31.7,13.2,0002.4,0021.16,0008.66,0007.56
2022-10-13 23:02:00,,0827.8,5.00,0.00,29.9,28.5,00.0,38.7,31.7,13.2,0002.9,0020.45,0008.64,0007.53
2022-10-13 23:03:00,,0827.9,5.01,0.00,29.9,28.6,00.0,38.7,31.8,13.3,0003.2,0019.87,0008.57,0007.47
2022-10-13 23:04:00,,0827.9,5.01,0.00,29.9,28.6,00.0,38.7,31.8,13.3,0003.5,0019.80,0008.52,0007.40
2022-10-13 23:05:00,,0827.9,5.00,0.00,29.9,28.6,00.0,38.7,31.9,13.3,0004.0,0020.62,0008.49,0007.34
2022-10-13 23:06:00,,0827.8,4.98,0.00,29.9,28.6,00.0,38.7,31.9,13.2,0003.7,0021.93,0008.39,0007.29
2022-10-13 23:07:00,,0827.8,5.02,0.00,30.0,28.6,00.0,38.7,31.9,13.3,0003.7,0021.96,0008.29,0007.24
2022-10-13 23:08:00,,0827.9,5.00,0.00,30.0,28.6,00.0,38.7,31.9,13.4,0004.2,0020.81,0008.14,0007.15
2022-10-13 23:09:00,,0827.9,5.00,0.00,30.0,28.6,00.0,38.7,31.9,13.2,0004.4,0020.42,0008.09,0007.10
2022-10-13 23:10:00,,0827.8,5.00,0.00,30.0,28.6,00.0,38.8,31.9,13.4,0004.3,0019.83,0008.01,0007.05
2022-10-13 23:11:00,,0827.7,5.00,0.00,30.0,28.6,00.0,38.8,31.9,13.4,0004.3,0019.48,0008.00,0007.01
2022-10-13 23:12:00,,0827.7,5.00,0.00,30.0,28.6,00.0,38.8,31.9,13.3,0003.9,0018.43,0007.92,0006.94
2022-10-13 23:13:00,,0827.8,5.00,0.00,30.0,28.7,00.0,38.8,31.9,13.3,0003.4,0018.71,0007.90,0006.90
2022-10-13 23:14:00,,0827.8,5.00,0.00,30.0,28.7,00.0,38.8,31.9,13.2,0003.2,0018.05,0007.85,0006.89
2022-10-13 23:15:00,,0827.8,5.00,0.00,30.0,28.7,00.0,38.8,31.9,13.2,0002.8,0018.36,0007.83,0006.88
2022-10-13 23:16:00,,0827.8,5.00,0.00,30.1,28.7,00.0,38.8,31.9,13.2,0002.7,0017.03,0007.82,0006.89
2022-10-13 23:17:00,,0827.8,5.00,0.00,30.1,28.7,00.0,38.8,32.0,13.1,0002.5,0015.83,0007.84,0006.91
2022-10-13 23:18:00,,0827.8,4.99,0.00,30.1,28.7,00.0,38.8,31.9,13.1,0002.5,0016.12,0007.92,0006.96
2022-10-13 23:19:00,,0827.7,5.00,0.00,30.1,28.7,00.0,38.9,31.9,13.2,0001.7,0016.53,0008.00,0006.99
2022-10-13 23:20:00,,0827.7,5.00,0.00,30.1,28.0,00.0,38.8,31.9,13.2,0001.3,0016.65,0008.03,0007.00
2022-10-13 23:21:00,,0827.7,5.00,0.00,30.1,26.7,00.0,38.8,31.8,13.4,0001.2,0016.70,0008.12,0007.03
2022-10-13 23:22:00,,0827.7,4.99,0.00,30.0,26.5,00.0,38.7,31.7,13.2,0001.2,0015.88,0008.13,0007.07
2022-10-13 23:23:00,,0827.7,5.01,0.00,29.9,26.8,00.0,38.7,31.5,13.2,0001.2,0015.47,0008.23,0007.11
2022-10-13 23:24:00,,0827.7,4.99,0.00,29.8,27.1,00.0,38.7,31.5,13.3,0001.1,0015.28,0008.28,0007.13
2022-10-13 23:25:00,,0827.7,5.00,0.00,29.8,27.3,00.0,38.7,31.5,13.3,0001.1,0015.30,0008.32,0007.16
2022-10-13 23:26:00,,0827.7,5.01,0.00,29.8,27.6,00.0,38.6,31.5,13.4,0001.5,0015.60,0008.35,0007.17
2022-10-13 23:27:00,,0827.7,4.99,0.00,29.8,27.8,00.0,38.6,31.6,13.6,0001.1,0015.73,0008.38,0007.19
2022-10-13 23:28:00,,0827.7,5.00,0.00,29.8,27.9,00.0,38.6,31.5,13.7,0001.4,0015.41,0008.38,0007.18
2022-10-13 23:29:00,,0827.8,5.00,0.00,29.8,28.1,00.0,38.6,31.6,13.7,0001.1,0015.59,0008.37,0007.15
2022-10-13 23:30:00,,0827.7,5.00,0.00,29.8,28.1,00.0,38.6,31.6,13.7,0001.5,0015.42,0008.32,0007.13
2022-10-13 23:31:00,,0827.7,5.00,0.00,29.8,28.2,00.0,38.6,31.6,13.6,0001.8,0016.07,0008.35,0007.12
2022-10-13 23:32:00,,0827.7,5.00,0.00,29.8,28.2,00.0,38.6,31.6,13.6,0001.2,0017.41,0008.34,0007.10
2022-10-13 23:33:00,,0827.7,5.01,0.00,29.8,28.3,00.0,38.6,31.6,13.7,0000.9,0017.66,0008.30,0007.08
2022-10-13 23:34:00,,0827.7,4.99,0.00,29.8,28.3,00.0,38.6,31.6,13.8,0001.1,0018.75,0008.27,0007.06
2022-10-13 23:35:00,,0827.7,5.00,0.00,29.8,28.4,00.0,38.6,31.7,13.7,0001.2,0019.88,0008.22,0007.04
2022-10-13 23:36:00,,0827.7,5.00,0.00,29.8,28.4,00.0,38.6,31.7,13.8,0001.7,0020.63,0008.23,0007.01
2022-10-13 23:37:00,,0827.7,5.00,0.00,29.8,28.5,00.0,38.6,31.7,13.7,0002.3,0020.52,0008.23,0007.01
2022-10-13 23:38:00,,0827.7,4.99,0.00,29.8,28.6,00.0,38.6,31.8,13.7,0002.7,0020.80,0008.20,0007.00
2022-10-13 23:39:00,,0827.7,4.99,0.00,29.8,28.6,00.0,38.6,31.8,13.7,0002.8,0021.48,0008.19,0007.01
2022-10-13 23:40:00,,0827.7,5.00,0.00,29.9,28.6,00.0,38.7,31.8,13.7,0003.0,0021.22,0008.15,0007.01
2022-10-13 23:41:00,,0827.7,5.00,0.00,29.9,28.7,00.0,38.7,31.8,13.8,0002.9,0023.08,0008.16,0007.02
2022-10-13 23:42:00,,0827.7,5.01,0.00,29.9,28.8,00.0,38.7,31.9,13.8,0002.3,0023.89,0008.12,0007.02
2022-10-13 23:43:00,,0827.7,5.00,0.00,29.9,28.8,00.0,38.7,31.9,13.8,0003.0,0023.24,0008.10,0007.03
2022-10-13 23:44:00,,0827.7,5.00,0.00,30.0,28.7,00.0,38.7,31.9,13.9,0000.4,0023.52,0008.11,0007.05
2022-10-13 23:45:00,,0827.7,5.00,0.00,30.0,28.8,00.0,38.7,31.9,13.9,0000.0,0022.57,0008.11,0007.04
2022-10-13 23:46:00,,0827.7,5.00,0.00,30.0,28.8,00.0,38.7,31.9,13.9,0000.0,0021.84,0008.10,0007.05
2022-10-13 23:47:00,,0827.7,5.00,0.00,30.0,28.8,00.0,38.8,31.9,13.9,0000.0,0022.62,0008.10,0007.06
2022-10-13 23:48:00,,0827.7,5.00,0.00,30.0,28.7,00.0,38.8,31.9,13.9,0000.0,0022.64,0008.12,0007.07
2022-10-13 23:49:00,,0827.7,5.00,0.00,30.0,28.7,00.0,38.8,31.9,13.9,0000.4,0022.81,0008.18,0007.06
2022-10-13 23:50:00,,0827.7,4.99,0.00,30.0,28.7,00.0,38.8,31.9,13.9,0000.4,0022.67,0008.22,0007.07
2022-10-13 23:51:00,,0827.7,5.01,0.00,30.0,28.7,00.0,38.8,31.9,13.9,0000.6,0022.65,0008.29,0007.08
2022-10-13 23:52:00,,0827.7,5.00,0.00,30.1,28.8,00.0,38.8,32.0,13.9,0000.4,0021.98,0008.36,0007.11
2022-10-13 23:53:00,,0827.7,5.00,0.00,30.1,28.8,00.0,38.9,32.0,13.8,0000.3,0021.45,0008.44,0007.14
2022-10-13 23:54:00,,0827.7,5.00,0.00,30.1,28.3,00.0,38.8,31.9,13.8,0000.4,0021.84,0008.53,0007.15
2022-10-13 23:55:00,,0827.7,5.00,0.00,30.1,26.8,00.0,38.8,31.8,13.9,0000.3,0021.15,0008.51,0007.15
2022-10-13 23:56:00,,0827.7,5.00,0.00,30.0,26.5,00.0,38.7,31.7,13.9,0000.7,0021.19,0008.52,0007.18
2022-10-13 23:57:00,,0827.6,5.01,0.00,30.0,26.7,00.0,38.7,31.6,13.9,0001.4,0021.25,0008.52,0007.19
2022-10-13 23:58:00,,0827.6,4.99,0.00,29.9,27.0,00.0,38.7,31.6,14.0,0000.5,0020.29,0008.51,0007.19
2022-10-13 23:59:00,,0827.6,5.00,0.00,29.8,27.3,00.0,38.7,31.5,14.1,0000.2,0020.03,0008.50,0007.19
